Content
SEND FEEDBACK

Daily
Averages
Monthly
Summary
Greece

ATHENS, GREECE


Home > Europe > Greece
Elevation: 69 feet     Latitude: 37 54N     Longitude: 023 44E

WEATHER
 
SELECT A DAY
Number of Records: 76,566;   Date Range: 4/14/01 - 7/20/14
 
SHARE

PRINT THIS DATA

[ ← Previous Day ]
WEATHER ALMANAC - JUNE 29, 2013
[ Next Day → ]
[ °C ]   °F
We're sorry. There is no daily almanac available for Athens, Greece on June 29, 2013.
WEATHER BY HOUR - JUNE 29, 2013
[ °C ]   °F
Local TimeTemperatureDewpointHumidityBarometerVisibilityWind DirectionWind SpeedGust SpeedPrecipitationEventsConditions
12:50 AM73.4 °F60.8 °F65 %29.92 inWest (280°)1.2 mphClear
1:20 AM71.6 °F62.6 °F73 %29.92 inWSW (250°)4.6 mphClear
1:50 AM69.8 °F60.8 °F73 %29.92 inVariable2.3 mphClear
2:20 AM69.8 °F62.6 °F78 %29.92 inVariable2.3 mphClear
2:50 AM68.0 °F59.0 °F73 %29.92 inSW (230°)1.2 mphClear
3:20 AM69.8 °F62.6 °F78 %29.92 inWest (260°)3.5 mphClear
3:50 AM68.0 °F62.6 °F83 %29.89 inVariable2.3 mphClear
4:20 AM66.2 °F59.0 °F78 %29.89 inWest (280°)2.3 mphClear
4:50 AM66.2 °F60.8 °F83 %29.89 inWNW (290°)1.2 mphClear
5:20 AM66.2 °F59.0 °F78 %29.89 inVariable1.2 mphClear
5:50 AM64.4 °F59.0 °F83 %29.89 inNE (50°)3.5 mphClear
6:20 AM64.4 °F59.0 °F83 %29.89 inNE (50°)4.6 mphClear
6:50 AM68.0 °F59.0 °F73 %29.89 inWest (280°)3.5 mphClear
7:20 AM71.6 °F62.6 °F73 %29.89 inVariable1.2 mphClear
7:50 AM73.4 °F60.8 °F65 %29.89 inCalmClear
8:20 AM75.2 °F60.8 °F61 %29.89 inVariable1.2 mphClear
8:50 AM77.0 °F60.8 °F57 %29.89 inVariable2.3 mphClear
9:20 AM78.8 °F57.2 °F47 %29.89 inVariable1.2 mphClear
9:50 AM80.6 °F57.2 °F45 %29.89 inVariable2.3 mphClear
10:20 AM82.4 °F55.4 °F39 %29.89 inVariable3.5 mphClear
10:50 AM82.4 °F55.4 °F39 %29.89 in6.2 miNE (50°)5.8 mphPartly Cloudy
11:20 AM82.4 °F55.4 °F39 %29.89 in6.2 miNE (50°)6.9 mphPartly Cloudy
11:50 AM84.2 °F55.4 °F37 %29.86 in6.2 miNE (50°)6.9 mphPartly Cloudy
12:20 PM84.2 °F53.6 °F35 %29.86 in6.2 miNE (50°)9.2 mphPartly Cloudy
12:50 PM86.0 °F55.4 °F35 %29.86 in6.2 miENE (60°)8.1 mphPartly Cloudy
1:20 PM84.2 °F51.8 °F33 %29.86 in6.2 miNE (40°)6.9 mphPartly Cloudy
1:50 PM86.0 °F53.6 °F33 %29.83 in6.2 miENE (60°)9.2 mphPartly Cloudy
2:20 PM86.0 °F55.4 °F35 %29.83 in6.2 miEast (90°)9.2 mphPartly Cloudy
2:50 PM86.0 °F55.4 °F35 %29.83 in6.2 miEast (80°)9.2 mphScattered Clouds
3:20 PM86.0 °F55.4 °F35 %29.83 in6.2 miEast (90°)9.2 mphPartly Cloudy
3:50 PM86.0 °F59.0 °F40 %29.83 in6.2 miESE (120°)10.4 mphPartly Cloudy
4:20 PM86.0 °F57.2 °F37 %29.80 in6.2 miESE (110°)10.4 mphPartly Cloudy
4:50 PM84.2 °F59.0 °F42 %29.80 in6.2 miSE (140°)9.2 mphPartly Cloudy
5:20 PM86.0 °F53.6 °F33 %29.80 in6.2 miSSW (200°)12.7 mphPartly Cloudy
5:50 PM84.2 °F55.4 °F37 %29.77 in6.2 miSSW (200°)13.8 mphPartly Cloudy
6:20 PM84.2 °F55.4 °F37 %29.77 in6.2 miSW (220°)13.8 mphPartly Cloudy
6:50 PM82.4 °F59.0 °F45 %29.77 in6.2 miSSW (210°)12.7 mphPartly Cloudy
7:20 PM80.6 °F57.2 °F45 %29.77 in6.2 miSSW (210°)12.7 mphPartly Cloudy
7:50 PM78.8 °F59.0 °F51 %29.77 in6.2 miSSW (210°)12.7 mphPartly Cloudy
8:20 PM78.8 °F60.8 °F54 %29.77 in6.2 miSW (220°)9.2 mphPartly Cloudy
8:50 PM77.0 °F60.8 °F57 %29.77 in6.2 miSSW (210°)11.5 mphPartly Cloudy
9:20 PM75.2 °F64.4 °F69 %29.77 in6.2 miSSW (210°)15.0 mphPartly Cloudy
9:50 PM75.2 °F62.6 °F65 %29.77 in6.2 miSouth (190°)10.4 mphPartly Cloudy
10:20 PM73.4 °F60.8 °F65 %29.77 inSW (220°)6.9 mphClear
10:50 PM77.0 °F44.6 °F32 %29.77 inVariable3.5 mphClear
11:20 PM77.0 °F44.6 °F32 %29.77 inWest (280°)11.5 mphClear
11:50 PM77.0 °F46.4 °F34 %29.77 inWest (270°)9.2 mphClear
Hourly data recorded from LGAV, located miles away from Athens, Greece







STORIES FROM OUR PARTNERS